Accueil
METAR-TAF:

METAR-TAF

Aéroports :

Aéroport d'Annecy Haute-Savoie Mont-Blanc

Annecy, France

latitude: 45-55-45N, longitude: 006-05-56E, altitude: 463 m

Observation

Le bulletin a été fait il y a 33 minutes, à 00:00 UTC
Vent 4 kt de nord/nord-est
Température 18°C
Humidité 94%
Pression 1020 hPa
Visibilité 10 km ou plus
Quelques nuages à une hauteur de 5600 ft

METAR: LFLP 210000Z AUTO 03004KT 9999 FEW056 18/17 Q1020

Heure: 02:33 (00:33 UTC)

Prévision

Le bulletin a été fait il y a 10 heures et 33 minutes, à 14:00 UTC
Prévision valable du 20 à 15 UTC au 21 à 15 UTC
Vent 10 kt de sud-ouest
Visibilité 10 km ou plus
pas de nuages en-dessous de 1500 mètres et pas de cumulonimbus.
Evoluant progressivement
du 21 à 08 UTC au 21 à 10 UTC
Vent 10 kt de nord-ouest

TAF: LFLP 201400Z 2015/2115 23010KT CAVOK BECMG 2108/2110 31010KT

Observations et prévisions météorologiques de plus de 4000 aéroports (messages METAR et TAF).

Les stations disponibles sont représentées par des disques jaunes et rouges sur la carte.

Passer la souris dessus pour voir le nom de la station.

Cliquer dessus pour voir les observations et prévisions météorologiques.

Pour changer de carte: cliquez sur les boutons verts avec une croix noire pour zoomer, sur le bouton vert avec un tiret pour effectuer un zoom arrière, ou sur les flèches vertes pour les cartes adjacentes.


METAR-TAF: